When you browse on this site, cookies collect data to enhance your experience and personalize the content and advertising you see.
Visit our Privacy Policy to learn more. By continuing to use the site, you agree to this use of cookies and data.
  • în România
  • Lista ţărilor
  • Pe 7 zile
  • Temperatura apei
  • Hartă satelitară
  • Meteo pe hartă
  • Widget-uri
  • user-avatar
    Intrare

    Meteo pe oră la Darłowo

    Astăzi, 20 Mai, Luni

    Timp Temperatura Precipitaţii Vânt Presiune Umiditate
    00:00 +16°C° 0 mm 3 m/s 754 mmHg 96%
    01:00 +16°C° 0 mm 2 m/s 754 mmHg 96%
    02:00 +15°C° 0 mm 2 m/s 754 mmHg 96%
    03:00 +15°C° 0 mm 2 m/s 754 mmHg 96%
    04:00 +14°C° 0 mm 3 m/s 754 mmHg 95%
    05:00 +16°C° 0 mm 3 m/s 754 mmHg 93%
    06:00 +18°C° 0 mm 3 m/s 754 mmHg 90%
    07:00 +19°C° 0 mm 3 m/s 754 mmHg 86%
    08:00 +21°C° 0.1 mm 3 m/s 754 mmHg 79%
    09:00 +22°C° 0.1 mm 4 m/s 754 mmHg 72%
    10:00 +25°C° 0.1 mm 5 m/s 754 mmHg 65%
    11:00 +25°C° 0.3 mm 5 m/s 753 mmHg 65%
    12:00 +25°C° 0.3 mm 5 m/s 753 mmHg 65%
    13:00 +26°C° 0.3 mm 5 m/s 753 mmHg 66%
    14:00 +25°C° 0.3 mm 5 m/s 753 mmHg 69%
    15:00 +25°C° 0.3 mm 5 m/s 752 mmHg 73%
    16:00 +23°C° 0.3 mm 5 m/s 752 mmHg 76%
    17:00 +22°C° 0.8 mm 5 m/s 752 mmHg 80%
    18:00 +22°C° 0.8 mm 5 m/s 752 mmHg 83%
    19:00 +21°C° 0.8 mm 4 m/s 752 mmHg 87%
    20:00 +20°C° 0.1 mm 4 m/s 752 mmHg 89%
    21:00 +19°C° 0.1 mm 3 m/s 752 mmHg 91%
    22:00 +18°C° 0.1 mm 2 m/s 752 mmHg 93%
    23:00 +18°C° 0 mm 2 m/s 752 mmHg 93%

    Mâine, 21 Mai, Marţi

    Timp Temperatura Precipitaţii Vânt Presiune Umiditate
    00:00 +18°C° 0 mm 2 m/s 752 mmHg 93%
    01:00 +17°C° 0 mm 2 m/s 752 mmHg 93%
    02:00 +17°C° 0.2 mm 2 m/s 752 mmHg 93%
    03:00 +16°C° 0.2 mm 1 m/s 752 mmHg 93%
    04:00 +16°C° 0.2 mm 1 m/s 752 mmHg 93%
    05:00 +16°C° 0 mm 0 m/s 752 mmHg 91%
    06:00 +17°C° 0 mm 0 m/s 752 mmHg 88%
    07:00 +18°C° 0 mm 0 m/s 752 mmHg 86%
    08:00 +20°C° 0.3 mm 1 m/s 752 mmHg 85%
    09:00 +20°C° 0.3 mm 2 m/s 752 mmHg 83%
    10:00 +20°C° 0.3 mm 2 m/s 752 mmHg 82%
    11:00 +21°C° 0.5 mm 2 m/s 752 mmHg 80%
    12:00 +21°C° 0.5 mm 2 m/s 752 mmHg 79%
    13:00 +23°C° 0.5 mm 2 m/s 752 mmHg 77%
    14:00 +23°C° 0.4 mm 2 m/s 752 mmHg 77%
    15:00 +23°C° 0.4 mm 2 m/s 752 mmHg 76%
    16:00 +23°C° 0.4 mm 2 m/s 752 mmHg 76%
    17:00 +21°C° 0 mm 2 m/s 752 mmHg 79%
    18:00 +20°C° 0 mm 2 m/s 752 mmHg 83%
    19:00 +21°C° 0 mm 1 m/s 752 mmHg 86%
    20:00 +20°C° 0 mm 1 m/s 753 mmHg 89%
    21:00 +19°C° 0 mm 1 m/s 753 mmHg 91%
    22:00 +17°C° 0 mm 2 m/s 753 mmHg 94%
    23:00 +16°C° 0 mm 2 m/s 753 mmHg 94%

    Poimâine, 22 Mai, Miercuri

    Timp Temperatura Precipitaţii Vânt Presiune Umiditate
    00:00 +16°C° 0 mm 1 m/s 753 mmHg 95%
    01:00 +15°C° 0 mm 1 m/s 753 mmHg 95%
    02:00 +15°C° 0 mm 1 m/s 753 mmHg 96%
    03:00 +15°C° 0 mm 1 m/s 753 mmHg 96%
    04:00 +15°C° 0 mm 1 m/s 753 mmHg 97%
    05:00 +16°C° 0 mm 1 m/s 753 mmHg 94%
    06:00 +18°C° 0 mm 1 m/s 753 mmHg 91%
    07:00 +19°C° 0 mm 1 m/s 754 mmHg 89%
    08:00 +19°C° 0 mm 2 m/s 754 mmHg 86%
    09:00 +19°C° 0 mm 2 m/s 754 mmHg 83%
    10:00 +20°C° 0 mm 3 m/s 754 mmHg 81%
    11:00 +20°C° 0 mm 3 m/s 754 mmHg 79%
    12:00 +20°C° 0 mm 4 m/s 754 mmHg 78%
    13:00 +20°C° 0 mm 4 m/s 755 mmHg 76%
    14:00 +20°C° 0 mm 4 m/s 755 mmHg 76%
    15:00 +19°C° 0 mm 4 m/s 755 mmHg 76%
    16:00 +19°C° 0 mm 4 m/s 755 mmHg 76%
    17:00 +17°C° 0 mm 4 m/s 755 mmHg 81%
    18:00 +15°C° 0 mm 4 m/s 755 mmHg 86%
    19:00 +14°C° 0 mm 5 m/s 756 mmHg 91%
    20:00 +13°C° 0.1 mm 5 m/s 756 mmHg 92%
    21:00 +13°C° 0.1 mm 6 m/s 757 mmHg 93%
    22:00 +11°C° 0.1 mm 6 m/s 757 mmHg 94%
    23:00 +11°C° 0.2 mm 7 m/s 757 mmHg 92%

    23 Mai, Joi

    Timp Temperatura Precipitaţii Vânt Presiune Umiditate
    00:00 +10°C° 0.2 mm 7 m/s 758 mmHg 91%
    01:00 +9°C° 0.2 mm 8 m/s 758 mmHg 89%
    02:00 +9°C° 0.2 mm 8 m/s 758 mmHg 88%
    03:00 +9°C° 0.2 mm 8 m/s 759 mmHg 87%
    04:00 +7°C° 0.2 mm 8 m/s 759 mmHg 87%
    05:00 +9°C° 0 mm 7 m/s 759 mmHg 85%
    06:00 +9°C° 0 mm 7 m/s 760 mmHg 83%
    07:00 +9°C° 0 mm 7 m/s 760 mmHg 81%
    08:00 +10°C° 0 mm 7 m/s 760 mmHg 76%
    09:00 +11°C° 0 mm 7 m/s 761 mmHg 70%
    10:00 +11°C° 0 mm 7 m/s 761 mmHg 65%
    11:00 +12°C° 0 mm 7 m/s 761 mmHg 63%
    12:00 +12°C° 0 mm 8 m/s 761 mmHg 62%
    13:00 +12°C° 0 mm 8 m/s 761 mmHg 61%
    14:00 +12°C° 0 mm 8 m/s 761 mmHg 62%
    15:00 +12°C° 0 mm 7 m/s 761 mmHg 63%
    16:00 +12°C° 0 mm 7 m/s 761 mmHg 64%
    17:00 +11°C° 0 mm 7 m/s 761 mmHg 68%
    18:00 +10°C° 0 mm 6 m/s 761 mmHg 72%
    19:00 +10°C° 0 mm 5 m/s 761 mmHg 76%
    20:00 +9°C° 0 mm 5 m/s 761 mmHg 80%
    21:00 +8°C° 0 mm 5 m/s 761 mmHg 85%
    22:00 +7°C° 0 mm 4 m/s 761 mmHg 89%
    23:00 +7°C° 0 mm 4 m/s 761 mmHg 88%

    24 Mai, Vineri

    Timp Temperatura Precipitaţii Vânt Presiune Umiditate
    00:00 +7°C° 0 mm 4 m/s 761 mmHg 87%
    01:00 +8°C° 0 mm 3 m/s 760 mmHg 86%
    02:00 +8°C° 0 mm 3 m/s 760 mmHg 86%
    03:00 +8°C° 0 mm 3 m/s 760 mmHg 86%
    04:00 +8°C° 0 mm 3 m/s 760 mmHg 86%
    05:00 +9°C° 0 mm 3 m/s 760 mmHg 80%
    06:00 +11°C° 0 mm 3 m/s 759 mmHg 75%
    07:00 +13°C° 0 mm 3 m/s 759 mmHg 69%
    08:00 +14°C° 0 mm 3 m/s 759 mmHg 65%
    09:00 +17°C° 0 mm 2 m/s 759 mmHg 62%
    10:00 +18°C° 0 mm 2 m/s 758 mmHg 58%
    11:00 +19°C° 0 mm 2 m/s 758 mmHg 56%
    12:00 +21°C° 0 mm 1 m/s 757 mmHg 55%
    13:00 +20°C° 0 mm 0 m/s 757 mmHg 54%
    14:00 +22°C° 0.1 mm 1 m/s 756 mmHg 57%
    15:00 +21°C° 0.1 mm 1 m/s 756 mmHg 61%
    16:00 +21°C° 0.1 mm 1 m/s 755 mmHg 64%
    17:00 +20°C° 0 mm 1 m/s 755 mmHg 69%
    18:00 +18°C° 0 mm 2 m/s 755 mmHg 74%
    19:00 +17°C° 0 mm 2 m/s 754 mmHg 79%
    20:00 +16°C° 0 mm 3 m/s 754 mmHg 82%
    21:00 +14°C° 0 mm 3 m/s 754 mmHg 85%
    22:00 +13°C° 0 mm 4 m/s 754 mmHg 88%
    23:00 +13°C° 0 mm 4 m/s 754 mmHg 87%

    25 Mai, Sâmbătă

    Timp Temperatura Precipitaţii Vânt Presiune Umiditate
    00:00 +13°C° 0 mm 4 m/s 754 mmHg 86%
    01:00 +13°C° 0 mm 5 m/s 753 mmHg 85%
    02:00 +12°C° 0 mm 5 m/s 753 mmHg 84%
    03:00 +12°C° 0 mm 5 m/s 753 mmHg 82%
    04:00 +12°C° 0 mm 5 m/s 753 mmHg 81%
    05:00 +13°C° 0 mm 5 m/s 753 mmHg 76%
    06:00 +14°C° 0 mm 5 m/s 753 mmHg 72%
    07:00 +15°C° 0 mm 5 m/s 753 mmHg 68%
    08:00 +15°C° 0.5 mm 5 m/s 753 mmHg 73%
    09:00 +15°C° 0.5 mm 5 m/s 753 mmHg 78%
    10:00 +15°C° 0.5 mm 5 m/s 754 mmHg 84%
    11:00 +14°C° 0.9 mm 4 m/s 754 mmHg 85%
    12:00 +15°C° 0.9 mm 2 m/s 754 mmHg 87%
    13:00 +14°C° 0.9 mm 1 m/s 754 mmHg 89%
    14:00 +15°C° 0 mm 1 m/s 754 mmHg 84%
    15:00 +16°C° 0 mm 1 m/s 754 mmHg 80%
    16:00 +18°C° 0 mm 1 m/s 754 mmHg 76%
    17:00 +16°C° 0 mm 2 m/s 754 mmHg 79%
    18:00 +15°C° 0 mm 2 m/s 754 mmHg 82%
    19:00 +15°C° 0 mm 2 m/s 754 mmHg 85%
    20:00 +13°C° 0.1 mm 3 m/s 754 mmHg 89%
    21:00 +13°C° 0.1 mm 3 m/s 754 mmHg 92%
    22:00 +12°C° 0.1 mm 3 m/s 754 mmHg 96%
    23:00 +12°C° 0.1 mm 3 m/s 754 mmHg 96%
    Arată mai mult